Location: La Pernelle
(49.6188°N, 1.2999°W)
Time: 15:39:55
(UTC+00:00)

Cosmos 1908 - Pass Details

Date: 12 June 2021
Orbit: 509 x 530 km, 82.5° (Epoch: 04 August)

Event Time Altitude Azimuth Distance (km) Brightness Sun altitude
Rises 21:38:41 0° 354° (N) 2,684 8.1 -10.2°
Reaches altitude 10° 21:40:54 10° 360° (N) 1,786 6.9 -10.4°
Maximum altitude 21:44:43 50° 76° (ENE) 683 3.7 -10.8°
Enters shadow 21:47:34 16° 148° (SSE) 1,404 4.7 -11.0°
